GFSFLT1_prec_snow_177.txt.gz
Snowfall_Accumulation
0.0 0.0 0.0 0.0 0.0 0.0 0.0 0.0 0.0 0.0 0.0 0.0 0.0 0.0 0.0 0.0 0.0 0.0 0.0 0.0 0.0 0.0 0.0 0.0 0.0 0.0 0.0 0.0 0.0 0.0 0.0 0.0
0.0 0.0 0.0 0.0 0.0 0.0 0.0 0.0 0.0 0.0 0.0 0.0 0.0 0.0 0.0 0.0 0.0 0.0 0.0 0.0 0.0 0.0 0.0 0.0 0.0 0.0 0.0 0.0 0.0 0.0 0.0 0.0
0.0 0.0 0.0 0.0 0.0 0.0 0.0 0.0 0.0 0.0 0.0 0.0 0.0 0.0 0.0 0.0 0.0 0.0 0.0 0.0 0.0 0.0 0.0 0.0 0.0 0.0 0.0 0.0 0.0 0.0 0.0 0.0
0.0 0.0 0.0 0.0 0.0 0.0 0.0 0.0 0.0 0.0 0.0 0.0 0.0 0.0 0.0 0.0 0.0 0.0 0.0 0.0 0.0 0.0 0.0 0.0 0.0 0.0 0.0 0.0 0.0 0.0 0.0 0.0
0.0 0.0 0.0 0.0 0.0 0.0 0.0 0.0 0.0 0.0 0.0 0.0 0.0 0.0 0.0 0.0 0.0 0.0 0.0 0.0 0.0 0.0 0.0 0.0 0.0 0.0 0.0 0.0 0.0 0.0 0.0 0.0
0.0 0.0 0.0 0.0 0.0 0.0 0.0 0.0 0.0 0.0 0.0 0.0 0.0 0.0 0.0 0.0 0.0 0.0 0.0 0.0 0.0 0.0 0.0 0.0 0.0 0.0 0.0 0.0 0.0 0.0 0.0 0.0
0.0 0.0 0.0 0.0 0.0 0.0 0.0 0.0 0.0 0.0 0.0 0.0 0.1 0.1 0.1 0.1 0.1 0.0 0.0 0.0 0.0 0.0 0.0 0.0 0.0 0.0 0.0 0.0 0.0 0.0 0.0 0.1
1.0 0.1 1.6 1.4 0.3 0.2 0.0 0.0 0.0 0.0 0.0 0.0 0.0 0.1 0.1 0.2 0.2 0.1 0.0 0.0 0.1 0.1 0.0 0.1 0.0 0.0 0.0 0.0 0.0 0.0 0.1 0.0
2.3 5.7 2.8 1.7 1.9 1.3 1.2 0.0 0.2 0.0 0.0 0.0 0.0 0.1 0.2 0.2 0.2 0.3 0.2 0.2 0.2 0.0 0.1 0.0 0.0 0.0 0.0 0.0 0.0 0.0 0.0 0.1
4.2 5.0 2.8 1.2 6.8 10.0 3.4 3.1 0.5 0.3 0.1 0.1 0.1 0.1 0.1 0.3 0.1 0.1 0.2 0.3 0.3 0.1 0.1 0.0 0.0 0.0 0.0 0.0 0.0 0.1 0.0 0.0
3.3 6.9 2.7 2.6 11.1 9.6 4.8 1.5 2.1 1.3 0.1 0.0 0.3 0.2 0.4 0.3 0.2 0.3 0.4 0.4 0.5 0.4 0.4 0.1 0.0 0.0 0.0 0.1 0.0 0.0 0.0 0.0
4.5 5.9 3.5 2.5 6.2 10.2 8.4 6.7 6.3 6.3 3.6 1.1 0.4 2.0 0.4 0.3 0.4 1.6 1.8 2.0 1.4 0.4 0.4 0.2 0.5 1.0 0.0 0.4 0.4 0.3 0.2 0.0
7.6 4.7 4.8 3.3 3.9 4.7 8.3 9.0 10.3 12.7 10.4 8.0 2.6 4.0 4.0 2.5 2.3 2.2 2.8 2.7 1.0 0.8 0.4 0.9 2.2 3.2 1.7 1.7 1.4 0.7 1.6 1.3
9.2 7.6 4.8 6.0 4.6 7.9 8.0 8.0 6.1 8.0 14.6 15.7 5.9 6.7 5.1 5.8 6.0 5.3 5.2 4.2 3.6 3.0 1.0 1.8 1.7 2.5 1.7 4.0 3.0 0.9 2.9 2.8
7.0 6.5 6.1 4.1 3.0 5.2 3.2 2.4 3.8 5.0 5.8 11.0 11.3 10.8 12.6 10.3 7.4 8.7 9.8 7.8 5.8 6.1 5.6 4.2 3.1 2.1 1.2 1.9 2.1 1.6 1.3 2.4
2.4 3.7 4.6 4.2 2.5 1.9 1.1 0.3 0.1 0.3 0.4 0.3 4.0 12.0 11.4 11.2 11.0 12.8 10.2 12.6 13.2 9.6 8.5 4.7 3.3 3.5 4.8 3.3 4.1 2.6 0.6 0.2
1.3 0.4 0.9 1.6 0.9 0.4 0.0 0.0 0.0 0.0 0.0 0.0 0.0 0.0 0.6 3.3 4.2 4.6 3.7 7.7 10.5 7.9 9.3 4.8 4.6 3.2 7.8 5.6 6.3 7.1 6.4 4.6
8.6 3.8 4.0 0.4 2.1 0.0 1.1 0.0 0.0 0.0 0.0 0.1 0.0 0.0 0.0 0.0 0.1 0.0 1.2 0.8 1.4 1.6 2.8 1.8 1.5 2.1 1.7 1.4 2.6 4.5 6.7 6.6
5.1 9.3 7.7 4.8 4.8 3.0 2.4 1.5 1.6 0.0 0.0 0.0 0.0 0.0 0.0 0.0 0.0 0.0 0.0 0.0 0.0 0.2 0.7 0.8 0.6 0.2 0.1 0.2 0.1 1.1 1.6 2.5

GFSFLT1_prec_snow_180.txt.gz
Snowfall_Accumulation
0.0 0.0 0.0 0.0 0.0 0.0 0.0 0.0 0.0 0.0 0.0 0.0 0.0 0.0 0.0 0.0 0.0 0.0 0.0 0.0 0.0 0.0 0.0 0.0 0.0 0.0 0.0 0.0 0.0 0.0 0.0 0.0
0.0 0.0 0.0 0.0 0.0 0.0 0.0 0.0 0.0 0.0 0.0 0.0 0.0 0.0 0.0 0.0 0.0 0.0 0.0 0.0 0.0 0.0 0.0 0.0 0.0 0.0 0.0 0.0 0.0 0.0 0.0 0.0
0.0 0.0 0.0 0.0 0.0 0.0 0.0 0.0 0.0 0.0 0.0 0.0 0.0 0.0 0.0 0.0 0.0 0.0 0.0 0.0 0.0 0.0 0.0 0.0 0.0 0.0 0.0 0.0 0.0 0.0 0.0 0.0
0.0 0.0 0.0 0.0 0.0 0.0 0.0 0.0 0.0 0.0 0.0 0.0 0.0 0.0 0.0 0.0 0.0 0.0 0.0 0.0 0.0 0.0 0.0 0.0 0.0 0.0 0.0 0.0 0.0 0.0 0.0 0.0
0.0 0.0 0.0 0.0 0.0 0.0 0.0 0.0 0.0 0.0 0.0 0.0 0.0 0.0 0.0 0.0 0.0 0.0 0.0 0.0 0.0 0.0 0.0 0.0 0.0 0.0 0.0 0.0 0.0 0.0 0.0 0.0
0.0 0.0 0.0 0.0 0.0 0.0 0.0 0.0 0.0 0.0 0.0 0.0 0.0 0.0 0.0 0.0 0.0 0.0 0.0 0.0 0.0 0.0 0.0 0.0 0.0 0.0 0.0 0.0 0.0 0.0 0.0 0.0
0.0 0.0 0.0 0.0 0.0 0.0 0.0 0.0 0.0 0.0 0.0 0.0 0.1 0.1 0.1 0.1 0.1 0.0 0.0 0.0 0.0 0.0 0.0 0.0 0.0 0.0 0.0 0.0 0.0 0.0 0.0 0.1
1.0 0.1 1.6 1.4 0.3 0.2 0.0 0.0 0.0 0.0 0.0 0.0 0.0 0.1 0.1 0.2 0.2 0.1 0.0 0.0 0.1 0.1 0.0 0.1 0.0 0.0 0.0 0.0 0.0 0.0 0.1 0.0
2.3 5.7 2.8 1.7 1.9 1.3 1.2 0.0 0.2 0.0 0.0 0.0 0.0 0.1 0.2 0.2 0.2 0.3 0.2 0.2 0.2 0.0 0.1 0.0 0.0 0.0 0.0 0.0 0.0 0.0 0.0 0.1
4.2 5.0 2.8 1.2 6.8 10.0 3.4 3.1 0.5 0.3 0.1 0.1 0.1 0.1 0.1 0.3 0.1 0.1 0.2 0.3 0.3 0.1 0.1 0.0 0.0 0.0 0.0 0.0 0.0 0.1 0.0 0.0
3.3 6.9 2.7 2.6 11.1 9.6 4.8 1.5 2.1 1.3 0.1 0.0 0.3 0.2 0.4 0.3 0.2 0.3 0.4 0.4 0.5 0.4 0.4 0.1 0.0 0.0 0.0 0.1 0.0 0.0 0.0 0.0
4.5 5.9 3.5 2.5 6.2 10.2 8.4 6.7 6.3 6.3 3.6 1.1 0.4 2.0 0.4 0.3 0.4 1.6 1.8 2.0 1.4 0.4 0.4 0.2 0.5 1.0 0.0 0.4 0.4 0.3 0.2 0.0
7.6 4.7 4.8 3.3 3.9 4.7 8.3 9.0 10.3 12.7 10.4 8.0 2.6 4.0 4.0 2.5 2.3 2.2 2.8 2.7 1.0 0.8 0.4 0.9 2.2 3.2 1.7 1.7 1.4 0.7 1.6 1.3
9.2 7.6 4.8 6.0 4.6 7.9 8.0 8.0 6.1 8.0 14.6 15.7 5.9 6.7 5.1 5.8 6.0 5.3 5.2 4.2 3.6 3.0 1.0 1.8 1.7 2.5 1.7 4.0 3.0 0.9 2.9 2.8
7.0 6.5 6.1 4.1 3.0 5.2 3.2 2.4 3.8 5.0 5.8 11.0 11.3 10.8 12.6 10.3 7.4 8.7 9.8 7.8 5.8 6.1 5.6 4.2 3.1 2.1 1.2 1.9 2.1 1.6 1.3 2.4
2.4 3.7 4.6 4.2 2.5 1.9 1.1 0.3 0.1 0.3 0.4 0.3 4.0 12.0 11.4 11.2 11.0 12.8 10.2 12.6 13.2 9.6 8.5 4.7 3.3 3.5 4.8 3.3 4.1 2.6 0.6 0.2
1.3 0.4 0.9 1.6 0.9 0.4 0.0 0.0 0.0 0.0 0.0 0.0 0.0 0.0 0.6 3.3 4.2 4.6 3.7 7.7 10.5 7.9 9.3 4.8 4.6 3.2 7.8 5.6 6.3 7.1 6.4 4.6
8.6 3.8 4.0 0.4 2.1 0.0 1.1 0.0 0.0 0.0 0.0 0.1 0.0 0.0 0.0 0.4 0.2 0.0 1.2 0.8 1.4 1.6 2.8 1.8 1.5 2.1 1.7 1.4 2.6 4.5 6.7 6.6
5.1 9.3 7.7 4.8 4.8 3.0 2.4 1.5 1.6 0.0 0.0 0.0 0.0 0.0 1.2 0.8 0.0 0.0 0.0 0.0 0.0 0.2 0.7 0.8 0.6 0.2 0.1 0.2 0.1 1.1 1.6 2.5

GFSFLT1_prec_snow_183.txt.gz
Snowfall_Accumulation
0.0 0.0 0.0 0.0 0.0 0.0 0.0 0.0 0.0 0.0 0.0 0.0 0.0 0.0 0.0 0.0 0.0 0.0 0.0 0.0 0.0 0.0 0.0 0.0 0.0 0.0 0.0 0.0 0.0 0.0 0.0 0.0
0.0 0.0 0.0 0.0 0.0 0.0 0.0 0.0 0.0 0.0 0.0 0.0 0.0 0.0 0.0 0.0 0.0 0.0 0.0 0.0 0.0 0.0 0.0 0.0 0.0 0.0 0.0 0.0 0.0 0.0 0.0 0.0
0.0 0.0 0.0 0.0 0.0 0.0 0.0 0.0 0.0 0.0 0.0 0.0 0.0 0.0 0.0 0.0 0.0 0.0 0.0 0.0 0.0 0.0 0.0 0.0 0.0 0.0 0.0 0.0 0.0 0.0 0.0 0.0
0.0 0.0 0.0 0.0 0.0 0.0 0.0 0.0 0.0 0.0 0.0 0.0 0.0 0.0 0.0 0.0 0.0 0.0 0.0 0.0 0.0 0.0 0.0 0.0 0.0 0.0 0.0 0.0 0.0 0.0 0.0 0.0
0.0 0.0 0.0 0.0 0.0 0.0 0.0 0.0 0.0 0.0 0.0 0.0 0.0 0.0 0.0 0.0 0.0 0.0 0.0 0.0 0.0 0.0 0.0 0.0 0.0 0.0 0.0 0.0 0.0 0.0 0.0 0.0
0.0 0.0 0.0 0.0 0.0 0.0 0.0 0.0 0.0 0.0 0.0 0.0 0.0 0.0 0.0 0.0 0.0 0.0 0.0 0.0 0.0 0.0 0.0 0.0 0.0 0.0 0.0 0.0 0.0 0.0 0.0 0.0
0.0 0.0 0.0 0.0 0.0 0.0 0.0 0.0 0.0 0.0 0.0 0.0 0.1 0.1 0.1 0.1 0.1 0.0 0.0 0.0 0.0 0.0 0.0 0.0 0.0 0.0 0.0 0.0 0.0 0.0 0.0 0.1
1.0 0.1 1.6 1.4 0.3 0.2 0.0 0.0 0.0 0.0 0.0 0.0 0.0 0.1 0.1 0.2 0.2 0.1 0.0 0.0 0.1 0.1 0.0 0.1 0.0 0.0 0.0 0.0 0.0 0.0 0.1 0.0
2.3 5.7 2.8 1.7 1.9 1.3 1.2 0.0 0.2 0.0 0.0 0.0 0.0 0.1 0.2 0.2 0.2 0.3 0.2 0.2 0.2 0.0 0.1 0.0 0.0 0.0 0.0 0.0 0.0 0.0 0.0 0.1
4.2 5.0 2.8 1.2 6.8 10.0 3.4 3.1 0.5 0.3 0.1 0.1 0.1 0.1 0.1 0.3 0.1 0.1 0.2 0.3 0.3 0.1 0.1 0.0 0.0 0.0 0.0 0.0 0.0 0.1 0.0 0.0
3.3 6.9 2.7 2.6 11.1 9.6 4.8 1.5 2.1 1.3 0.1 0.0 0.3 0.2 0.4 0.3 0.2 0.3 0.4 0.4 0.5 0.4 0.4 0.1 0.0 0.0 0.0 0.1 0.0 0.0 0.0 0.0
4.5 5.9 3.5 2.5 6.2 10.2 8.4 6.7 6.3 6.3 3.6 1.1 0.4 2.0 0.4 0.3 0.4 1.6 1.8 2.0 1.4 0.4 0.4 0.2 0.5 1.0 0.0 0.4 0.4 0.3 0.2 0.0
7.6 4.7 4.8 3.3 3.9 4.7 8.3 9.0 10.3 12.7 10.4 8.0 2.6 4.0 4.0 2.5 2.3 2.2 2.8 2.7 1.0 0.8 0.4 0.9 2.2 3.2 1.7 1.7 1.4 0.7 1.6 1.3
9.2 7.6 4.8 6.0 4.6 7.9 8.0 8.0 6.1 8.0 14.6 15.7 5.9 6.7 5.1 5.8 6.0 5.3 5.2 4.2 3.6 3.0 1.0 1.8 1.7 2.5 1.7 4.0 3.0 0.9 2.9 2.8
7.0 6.5 6.1 4.1 3.0 5.2 3.2 2.4 3.8 5.0 5.8 11.0 11.3 10.8 12.6 10.3 7.4 8.7 9.8 7.8 5.8 6.1 5.6 4.2 3.1 2.1 1.2 1.9 2.1 1.6 1.3 2.4
2.4 3.7 4.6 4.2 2.5 1.9 1.1 0.3 0.1 0.3 0.4 0.3 4.0 12.0 11.4 11.2 11.0 12.8 10.2 12.7 13.2 9.6 8.5 4.7 3.3 3.5 4.8 3.3 4.1 2.6 0.6 0.2
1.3 0.4 0.9 1.6 0.9 0.4 0.0 0.0 0.0 0.0 0.0 0.0 0.0 0.0 0.6 3.3 4.2 4.6 3.7 7.8 10.5 7.9 9.3 4.8 4.6 3.2 7.8 5.6 6.3 7.1 6.4 4.6
8.6 3.8 4.0 0.4 2.1 0.0 1.1 0.0 0.0 0.0 0.0 0.1 0.0 0.0 0.0 0.4 0.2 0.0 1.7 1.2 1.4 1.6 2.8 1.8 1.5 2.1 1.7 1.4 2.6 4.5 6.7 6.6
5.1 9.3 7.7 4.8 4.8 3.0 2.4 1.5 1.6 0.0 0.0 0.0 0.0 0.1 1.2 0.8 0.0 0.0 1.2 0.5 0.1 0.2 0.7 0.8 0.6 0.2 0.1 0.2 0.1 1.1 1.6 2.5

GFSFLT1_prec_snow_186.txt.gz
Snowfall_Accumulation
0.0 0.0 0.0 0.0 0.0 0.0 0.0 0.0 0.0 0.0 0.0 0.0 0.0 0.0 0.0 0.0 0.0 0.0 0.0 0.0 0.0 0.0 0.0 0.0 0.0 0.0 0.0 0.0 0.0 0.0 0.0 0.0
0.0 0.0 0.0 0.0 0.0 0.0 0.0 0.0 0.0 0.0 0.0 0.0 0.0 0.0 0.0 0.0 0.0 0.0 0.0 0.0 0.0 0.0 0.0 0.0 0.0 0.0 0.0 0.0 0.0 0.0 0.0 0.0
0.0 0.0 0.0 0.0 0.0 0.0 0.0 0.0 0.0 0.0 0.0 0.0 0.0 0.0 0.0 0.0 0.0 0.0 0.0 0.0 0.0 0.0 0.0 0.0 0.0 0.0 0.0 0.0 0.0 0.0 0.0 0.0
0.0 0.0 0.0 0.0 0.0 0.0 0.0 0.0 0.0 0.0 0.0 0.0 0.0 0.0 0.0 0.0 0.0 0.0 0.0 0.0 0.0 0.0 0.0 0.0 0.0 0.0 0.0 0.0 0.0 0.0 0.0 0.0
0.0 0.0 0.0 0.0 0.0 0.0 0.0 0.0 0.0 0.0 0.0 0.0 0.0 0.0 0.0 0.0 0.0 0.0 0.0 0.0 0.0 0.0 0.0 0.0 0.0 0.0 0.0 0.0 0.0 0.0 0.0 0.0
0.0 0.0 0.0 0.0 0.0 0.0 0.0 0.0 0.0 0.0 0.0 0.0 0.0 0.0 0.0 0.0 0.0 0.0 0.0 0.0 0.0 0.0 0.0 0.0 0.0 0.0 0.0 0.0 0.0 0.0 0.0 0.0
0.0 0.0 0.0 0.0 0.0 0.0 0.0 0.0 0.0 0.0 0.0 0.0 0.1 0.1 0.1 0.1 0.1 0.0 0.0 0.0 0.0 0.0 0.0 0.0 0.0 0.0 0.0 0.0 0.0 0.0 0.0 0.1
1.0 0.1 1.6 1.4 0.3 0.2 0.0 0.0 0.0 0.0 0.0 0.0 0.0 0.1 0.1 0.2 0.2 0.1 0.0 0.0 0.1 0.1 0.0 0.1 0.0 0.0 0.0 0.0 0.0 0.0 0.1 0.0
2.3 5.7 2.8 1.7 1.9 1.3 1.2 0.0 0.2 0.0 0.0 0.0 0.0 0.1 0.2 0.2 0.2 0.3 0.2 0.2 0.2 0.0 0.1 0.0 0.0 0.0 0.0 0.0 0.0 0.0 0.0 0.1
4.2 5.0 2.8 1.2 6.8 10.0 3.4 3.1 0.5 0.3 0.1 0.1 0.1 0.1 0.1 0.3 0.1 0.1 0.2 0.3 0.3 0.1 0.1 0.0 0.0 0.0 0.0 0.0 0.0 0.1 0.0 0.0
3.3 6.9 2.7 2.6 11.1 9.6 4.8 1.5 2.1 1.3 0.1 0.0 0.3 0.2 0.4 0.3 0.2 0.3 0.4 0.4 0.5 0.4 0.4 0.1 0.0 0.0 0.0 0.1 0.0 0.0 0.0 0.0
4.5 5.9 3.5 2.5 6.2 10.2 8.4 6.7 6.3 6.3 3.6 1.1 0.4 2.0 0.4 0.3 0.4 1.6 1.8 2.0 1.4 0.4 0.4 0.2 0.5 1.0 0.0 0.4 0.4 0.3 0.2 0.0
7.6 4.7 4.8 3.3 3.9 4.7 8.3 9.0 10.3 12.7 10.4 8.0 2.6 4.0 4.0 2.5 2.3 2.2 2.8 2.7 1.0 0.8 0.4 0.9 2.2 3.2 1.7 1.7 1.4 0.7 1.6 1.3
9.2 7.6 4.8 6.0 4.6 7.9 8.0 8.0 6.1 8.0 14.6 15.7 5.9 6.7 5.1 5.8 6.0 5.3 5.2 4.2 3.6 3.0 1.0 1.8 1.7 2.5 1.7 4.0 3.0 0.9 2.9 2.8
7.0 6.5 6.1 4.1 3.0 5.2 3.2 2.4 3.8 5.0 5.8 11.0 11.3 10.8 12.6 10.3 7.4 8.7 9.8 7.8 5.8 6.1 5.6 4.2 3.1 2.1 1.2 1.9 2.1 1.6 1.3 2.4
2.4 3.7 4.6 4.2 2.5 1.9 1.1 0.3 0.1 0.3 0.4 0.3 4.0 12.0 11.4 11.2 11.0 12.8 10.2 12.7 13.2 9.6 8.5 4.7 3.3 3.5 4.8 3.3 4.1 2.6 0.6 0.2
1.3 0.4 0.9 1.6 0.9 0.4 0.0 0.0 0.0 0.0 0.0 0.0 0.0 0.0 0.6 3.3 4.3 4.6 3.7 7.8 10.5 7.9 9.3 4.8 4.6 3.2 7.8 5.6 6.3 7.1 6.4 4.6
8.6 3.8 4.0 0.4 2.1 0.0 1.1 0.0 0.0 0.0 0.0 0.1 0.0 0.0 0.0 0.6 0.2 0.0 1.7 1.2 1.4 1.6 2.8 2.0 1.5 2.1 1.7 1.4 2.6 4.5 6.7 6.6
5.1 9.3 7.7 4.8 4.8 3.0 2.4 1.5 1.6 0.0 0.0 0.0 0.0 0.1 1.2 0.8 0.0 0.0 1.2 0.5 0.1 0.7 1.0 0.9 0.6 0.2 0.1 0.2 0.1 1.1 1.6 2.5